星链-1998 (STARLINK-1998 )

导读 | 豆包AI

STARLINK-1998是美国SpaceX星链星座中的卫星,于2021年2月4日发射升空。它延续星链星座低轨互联网组网布局,为全球提供高速宽带服务,特别覆盖偏远地区,也在俄乌冲突等场景中为军事通信提供支持。作为星链批量部署环节的一员,它进一步拓展了星链星座的服务覆盖范围与网络容量。

Basic Information
目录编号:
47593
目录名称:
STARLINK-1998
国际标识:
2021-009AX
轨道中心:
EARTH
卫星名称:
星链-1998
卫星全名:
星链-1998 (STARLINK-1998 )
卫星状态:
已陨落 最后检测时间 2025-01-21
发射日期:
2021-02-04 UTC
国别 :
美国 (US)
星等 :
--
Orbit Information
数据来源 国际轨道数据
星历时间: 2025-01-21T06:35:29+0800
轨道信息已过期464天
半长轴: 6595.566km
偏心率: 0.000871
轨道倾角: 53.032°
近地点辐角 36.473°
升交点赤经 60.630°
平近点角 109.496°
近地点: 211.686km
远地点: 223.176km
周期: 88.846分钟
每日圈数: 16.207825
Detailed Information
固有亮度:
5
最大亮度:
2.5
卫星平台:
Starlink V1.0
覆盖范围:
全球
运营商:
太空探索技术公司
运营商所在国:
美国
制造商(研发单位):
太空探索技术公司
制造商所在国:
美国
使用方式:
暂无
Satellite Introduction
星链(Starlink)计划是由太空探索技术公司(SpaceX)提出的一个巨型低轨卫星互联网星座项目,计划在2019年至2024年间在太空搭建由约1.2万颗卫星组成的“星链”网络,其中1584颗将部署在地球上空550千米处的近地轨道,并从2020年开始工作。该卫星仍在工作。